Satellite-Ground Cal/Val Site Overpasses Predictions

Prediction of Satellite NPP Overpassing Cal/Val Site: Antarctic Dome C

Ground Cal/Val Site Location: Latitude: -75.10, Longitude: 123.35; Satellite-Ground Site NADIR distance within 100 km.

Table of predicted overpasses for the next 14.0 days since TLE Epoch: 8/28/2016
Interval Starting Time Ending Time Minimum Distance Time Minimum Distance (km)
1 08/28/2016 14:42:50 08/28/2016 14:43:15 08/28/2016 14:43:03 53.14
2 08/29/2016 07:44:31 08/29/2016 07:44:52 08/29/2016 07:44:41 69.79
3 08/30/2016 07:25:37 08/30/2016 07:26:04 08/30/2016 07:25:51 38.31
4 09/01/2016 15:08:01 09/01/2016 15:08:11 09/01/2016 15:08:06 93.44
5 09/02/2016 14:49:02 09/02/2016 14:49:30 09/02/2016 14:49:16 17.70
6 09/04/2016 07:31:50 09/04/2016 07:32:19 09/04/2016 07:32:04 2.39
7 09/07/2016 14:55:14 09/07/2016 14:55:43 09/07/2016 14:55:28 18.52
8 09/08/2016 14:36:32 09/08/2016 14:36:46 09/08/2016 14:36:39 88.48
9 09/09/2016 07:38:04 09/09/2016 07:38:31 09/09/2016 07:38:17 34.08


NCC Satellite Cal/Val Overpasses Prediction Service
